This is the latest recevied weather packets stored in our database for station/object W4JCW. If no packets are shown the sender has not sent any weather packets the latest 10 day(s).
| Time | Temp. | Humidity | Pressure | Rain* | Wind** | Luminosity | Snow |
|---|---|---|---|---|---|---|---|
| 1778127565 | 19.44° C | 96% | 1012.3 hPa | 3.56 mm | - | 0 W/m² | - |
| 1778127262 | 19.44° C | 96% | 1012.3 hPa | 3.56 mm | - | 0 W/m² | - |
| 1778126960 | 19.44° C | 96% | 1011 hPa | 5.33 mm | - | 0 W/m² | - |
| 1778126655 | 20° C | 95% | 1011.2 hPa | 7.11 mm | - | 0 W/m² | - |
| 1778126351 | 20° C | 95% | 1011.4 hPa | 7.11 mm | - | 0 W/m² | - |
| 1778126048 | 20° C | 95% | 1012.3 hPa | 7.11 mm | - | 0 W/m² | - |
| 1778125745 | 20° C | 95% | 1013.6 hPa | 5.33 mm | - | 0 W/m² | - |
| 1778125441 | 20° C | 95% | 1013.8 hPa | 3.05 mm | - | 0 W/m² | - |
| 1778125140 | 20.56° C | 94% | 1013.9 hPa | 4.32 mm | - | 0 W/m² | - |
| 1778124837 | 20.56° C | 94% | 1014.1 hPa | 5.33 mm | - | 0 W/m² | - |
| 1778124534 | 20.56° C | 93% | 1013.5 hPa | 6.1 mm | - | 0 W/m² | - |
| 1778124231 | 20.56° C | 92% | 1013.4 hPa | 6.1 mm | - | 0 W/m² | - |
| 1778123927 | 20.56° C | 91% | 1013.5 hPa | 10.67 mm | - | 0 W/m² | - |
| 1778123624 | 21.11° C | 89% | 1013.5 hPa | 17.53 mm | - | 0 W/m² | - |
| 1778123320 | 22.22° C | 87% | 1013 hPa | 14.48 mm | - | 0 W/m² | - |
| 1778123018 | 23.33° C | 81% | 1012.6 hPa | 4.32 mm | - | 0 W/m² | - |
| 1778122714 | 23.89° C | 75% | 1011.8 hPa | 0 mm | - | 0 W/m² | - |
| 1778122412 | 24.44° C | 72% | 1011.1 hPa | 0 mm | - | 0 W/m² | - |
| 1778122110 | 24.44° C | 70% | 1011 hPa | 0 mm | - | 0 W/m² | - |
| 1778121807 | 25° C | 69% | 1010.7 hPa | 0 mm | - | 0 W/m² | - |
| 1778121503 | 25° C | 69% | 1010.7 hPa | 0 mm | - | 0 W/m² | - |
| 1778121199 | 25° C | 69% | 1010.4 hPa | 0 mm | - | 0 W/m² | - |
| 1778120897 | 25° C | 68% | 1010.5 hPa | 0 mm | - | 0 W/m² | - |
| 1778120593 | 25° C | 68% | 1010.1 hPa | 0 mm | - | 0 W/m² | - |
| 1778120289 | 25° C | 67% | 1010.3 hPa | 0 mm | - | 0 W/m² | - |
* Rain latest hour (hover to see other rain measurements)
** Current wind speed in m/s (hover to see current wind gust speed)